Theta_e
337 340 338 338 340 340 339 337 336 336 335 333 332 331 327 322 322 323 325 328 331 333 334 335 334 332 332 333 335 336 336 336 335 335 335 334 333 332 333 333 332 331 331 330 330 331 330 328 327 326 325 324 323 322 320 317 317 314 313 313 312 312 312
336 340 339 337 340 341 340 339 337 336 337 336 335 333 330 327 325 324 327 328 328 331 334 335 335 332 330 331 333 335 336 335 334 334 334 334 333 332 332 332 332 332 331 330 330 330 330 330 329 327 326 324 323 323 323 320 318 316 314 313 313 312 312
337 341 342 338 339 341 341 339 338 337 336 336 336 334 332 332 331 328 329 329 326 328 331 335 337 334 331 331 332 334 335 335 334 334 333 333 332 333 333 332 332 332 332 331 330 329 329 329 329 328 327 325 324 324 324 323 321 318 315 314 314 313 312
338 340 342 341 340 341 341 340 339 338 337 335 336 335 332 334 335 330 328 329 327 326 330 334 337 336 334 332 332 334 335 335 335 333 333 333 332 332 332 332 332 332 332 331 330 329 328 328 328 328 327 326 326 325 325 324 323 320 316 314 314 314 314
340 339 339 340 340 340 341 340 339 338 338 337 336 335 334 335 334 330 330 331 328 327 329 333 337 337 336 333 332 333 334 335 335 334 334 333 333 333 332 332 333 332 331 330 329 329 329 328 328 328 328 327 326 326 325 325 324 322 318 315 315 315 313
342 340 337 339 340 339 339 338 338 338 338 337 337 336 335 335 333 332 332 333 331 329 330 333 336 337 337 335 333 333 334 334 334 334 334 334 333 333 333 333 333 333 331 330 329 329 329 329 328 328 329 329 327 326 325 325 324 322 318 316 315 314 312
342 341 339 338 339 339 338 336 336 337 337 337 337 337 337 335 334 334 334 334 333 331 330 333 335 336 337 335 333 334 334 334 334 334 334 334 333 333 333 333 333 333 333 331 330 329 329 329 329 329 329 329 328 326 325 324 323 321 318 317 315 314 312
342 341 340 340 339 339 338 337 336 337 337 337 337 338 337 337 336 336 335 333 333 332 331 333 334 336 337 335 334 334 335 334 334 334 334 334 333 333 333 333 333 333 333 332 331 330 329 329 329 329 330 329 328 327 325 323 321 320 318 317 315 314 312
342 341 341 340 340 339 339 339 338 338 338 338 337 337 338 338 337 336 335 333 332 332 332 333 335 336 337 335 334 335 335 334 334 335 334 334 334 334 334 334 333 333 332 332 331 330 329 329 329 330 330 329 328 328 326 323 322 320 318 317 315 314 312
340 341 340 339 340 342 342 341 340 339 339 338 337 337 338 338 338 337 336 334 333 332 333 334 335 336 337 336 335 335 335 335 335 335 335 334 335 335 334 334 333 332 332 332 331 330 329 329 329 329 329 328 327 326 325 325 324 322 319 317 315 313 312
340 340 340 340 341 342 342 341 341 341 340 339 338 338 339 339 339 337 337 337 335 332 333 335 334 336 337 336 335 335 335 336 336 335 335 335 334 334 333 332 333 332 331 331 331 330 329 328 328 327 327 327 326 326 325 325 324 321 319 317 314 312 311
341 339 339 341 342 342 341 341 341 342 341 340 339 339 340 340 339 338 338 339 338 334 333 334 335 336 337 336 335 335 335 336 336 335 334 334 333 331 330 330 331 330 330 329 329 329 328 327 327 327 326 326 326 325 324 324 322 319 318 317 313 312 311
341 340 339 342 343 342 341 340 341 342 341 341 341 341 341 340 339 339 338 339 339 337 334 334 336 337 337 336 335 334 335 335 335 334 334 332 331 330 330 330 330 329 328 328 328 328 329 329 328 327 326 326 326 325 323 323 321 318 318 316 313 311 311
342 341 342 344 344 343 341 341 342 343 342 341 342 342 341 340 339 339 339 339 339 338 336 335 336 336 336 336 335 334 335 335 335 334 333 332 330 330 330 330 330 329 328 328 329 328 328 328 327 326 326 326 325 323 322 321 319 317 317 316 314 312 311
341 342 344 345 345 343 342 342 343 343 342 342 342 342 341 341 340 340 339 339 339 338 337 337 336 335 336 337 336 335 335 335 334 333 332 331 330 330 329 330 330 329 328 328 329 328 327 327 327 326 325 324 322 319 318 318 317 316 316 317 316 315 313
340 344 345 345 345 343 343 344 344 344 343 342 342 342 342 340 340 340 340 339 339 339 339 339 337 335 336 337 337 336 335 334 333 333 332 330 330 330 329 329 328 328 328 328 328 327 326 326 325 323 321 319 317 316 315 316 315 313 314 316 317 316 315
341 344 344 344 344 343 343 345 345 344 343 343 342 342 342 340 340 341 340 340 339 339 339 340 339 337 336 337 337 336 335 334 333 333 331 330 330 329 329 328 328 328 327 327 327 326 325 323 321 319 317 315 313 314 315 315 313 311 312 315 316 316 315
341 342 342 343 342 341 342 345 344 343 343 344 343 342 341 341 341 341 340 340 339 339 339 339 339 338 337 337 337 336 335 334 333 332 331 330 330 329 329 328 328 327 326 325 325 324 323 321 318 317 315 312 311 311 312 313 312 310 311 314 316 314 312
340 339 341 341 339 338 341 345 345 343 343 344 343 343 341 341 341 341 340 340 339 338 338 339 339 339 338 338 337 336 335 334 333 332 331 331 330 328 328 327 327 326 325 324 325 324 322 320 318 315 312 309 309 310 309 310 311 309 310 312 314 312 309
337 335 336 338 337 337 341 344 344 343 343 344 344 343 341 341 341 341 340 340 339 338 338 338 339 339 338 338 337 336 334 333 333 332 331 331 330 329 328 327 326 325 324 324 324 323 322 319 316 313 309 307 308 308 307 308 308 308 309 309 311 311 308
338 333 330 332 336 338 340 342 343 342 343 344 344 343 342 341 341 342 340 340 339 338 338 338 338 338 337 337 336 335 334 333 333 332 331 330 330 328 327 325 325 324 323 323 323 322 320 317 313 309 307 306 307 306 306 307 307 306 305 305 308 310 308
342 337 333 333 337 340 340 340 341 342 344 344 344 344 342 341 342 341 340 340 340 339 338 337 337 337 337 336 336 335 334 333 333 332 331 330 329 328 326 324 324 323 322 322 322 320 318 314 309 306 305 305 305 304 304 305 304 303 303 304 307 309 308
345 342 339 338 340 341 341 340 340 342 344 344 344 344 343 342 342 341 341 340 340 339 338 337 337 337 337 337 336 335 334 333 333 331 330 330 329 328 326 324 323 322 322 321 320 318 315 310 307 304 303 303 303 302 303 303 301 301 303 305 308 309 308
346 343 342 341 341 341 341 341 341 342 344 345 345 344 343 342 342 342 341 340 340 340 339 338 337 337 337 337 336 335 334 333 332 331 330 330 330 328 326 324 323 322 321 320 319 316 312 308 305 303 302 302 302 301 301 300 300 302 304 306 308 308 307
346 345 344 342 342 341 340 341 341 343 344 344 344 344 343 342 341 342 342 341 340 340 339 338 338 337 336 336 336 335 334 333 332 331 331 331 331 329 326 323 322 321 321 320 318 315 311 307 304 302 302 301 301 301 300 299 300 303 305 307 307 307 307
345 345 345 344 342 342 341 340 340 341 342 342 344 344 343 342 341 341 342 341 341 340 339 338 338 337 336 336 336 335 334 332 332 332 332 332 332 330 326 323 322 322 321 319 317 314 311 307 304 302 301 301 300 300 300 299 300 303 305 306 307 307 307
340 341 345 345 343 343 342 340 339 339 340 342 344 344 344 343 342 341 341 342 341 340 339 339 338 337 336 336 336 335 334 332 332 332 332 332 332 332 328 325 323 322 322 320 317 314 310 307 304 302 301 300 300 300 299 299 300 303 305 306 306 307 307
335 339 344 345 344 343 342 341 339 338 340 342 343 343 344 343 342 341 341 342 342 341 340 339 339 338 337 336 336 335 334 332 332 332 332 332 332 332 330 326 323 322 322 321 319 315 311 307 303 301 300 300 299 299 299 299 299 301 304 306 306 306 307
336 339 342 344 344 342 341 340 338 338 340 341 341 342 343 343 343 341 341 342 342 341 340 340 339 338 337 336 336 335 333 332 332 332 332 332 332 332 330 327 324 323 322 322 320 316 311 307 303 301 300 300 299 299 299 298 299 299 300 303 304 303 304
337 339 340 343 344 342 340 340 338 338 340 342 342 343 343 343 343 342 341 342 342 341 340 340 339 339 338 337 336 335 333 332 332 333 332 332 331 331 331 328 325 323 322 322 320 315 310 306 303 300 300 299 299 299 299 299 299 298 298 299 301 300 300
334 338 340 342 343 342 341 340 339 339 340 341 341 342 342 342 341 341 341 341 341 341 340 340 339 338 338 337 336 335 333 332 332 333 333 331 330 330 331 328 325 324 322 321 319 314 309 305 302 300 299 299 299 299 299 299 299 298 298 298 298 298 297
328 334 339 341 342 342 340 340 340 339 339 340 340 341 342 342 341 340 340 341 341 340 340 339 339 338 338 337 336 335 333 332 333 333 332 330 329 330 330 327 325 323 321 320 317 313 308 305 302 301 299 299 299 299 299 302 302 300 298 297 297 297 297
328 330 334 338 341 342 341 339 339 339 340 341 341 342 342 342 341 341 340 340 340 340 339 339 339 338 338 337 336 334 333 333 333 333 331 329 329 329 329 327 324 322 320 318 316 312 308 304 302 300 299 299 299 299 300 304 304 301 298 297 297 297 297
334 333 333 337 340 342 341 340 339 339 340 341 342 342 342 341 341 341 340 340 340 340 339 339 338 338 337 337 336 334 333 333 334 333 331 330 329 330 329 328 325 322 320 319 316 313 309 305 302 300 299 299 299 299 301 303 303 299 297 297 297 296 296
335 336 336 338 340 341 341 341 340 340 341 341 342 341 341 341 341 340 340 340 340 340 339 338 338 338 337 336 335 334 334 334 334 334 332 331 331 330 329 328 327 326 324 322 318 314 309 306 303 300 299 299 298 299 300 301 301 299 297 297 297 296 296
334 335 335 335 338 340 341 341 341 341 341 341 341 341 341 341 341 340 340 340 339 339 339 338 338 337 336 335 335 334 334 334 335 335 333 332 332 331 330 329 329 328 327 325 321 315 308 305 303 300 299 299 298 299 300 300 300 299 298 298 297 297 297
334 335 335 335 337 339 340 341 341 341 341 341 341 341 340 340 340 339 339 339 338 338 338 337 337 337 336 335 335 334 334 334 335 335 334 333 333 331 330 330 330 329 328 325 321 314 308 304 303 301 299 299 299 300 301 300 300 301 300 300 299 298 298
Wind_Speed
31 30 30 30 28 28 26 26 28 28 26 24 25 26 25 23 22 22 24 24 22 20 18 17 17 17 17 16 16 16 15 17 19 18 17 18 21 21 20 19 19 16 12 12 11 9 8 9 11 15 17 17 16 13 14 15 11 12 17 16 16 16 15
30 29 28 30 30 29 28 27 27 27 26 25 25 27 26 25 24 23 23 25 24 22 19 17 17 18 18 18 17 17 17 17 19 20 19 19 18 19 19 19 19 17 16 15 13 11 10 9 10 13 16 16 17 16 14 15 14 13 17 19 17 15 14
30 29 28 30 33 32 30 29 28 26 28 28 28 28 27 26 26 25 24 24 24 24 22 18 17 19 19 19 19 18 18 18 19 19 19 19 18 18 17 17 17 17 18 16 14 14 14 12 11 12 15 16 17 17 15 14 14 14 17 20 20 17 14
31 31 31 31 33 34 33 32 29 27 27 28 28 28 27 26 28 27 25 24 24 24 24 21 18 19 20 20 19 19 19 18 19 19 19 19 19 18 17 17 16 15 15 15 15 15 14 13 12 11 14 17 17 17 16 14 12 13 16 20 22 18 14
32 32 33 33 34 35 35 33 30 29 29 27 27 28 28 28 29 29 26 25 25 26 25 23 20 20 20 20 20 21 20 19 20 20 20 20 20 19 18 17 17 15 15 16 15 15 14 13 12 12 13 15 15 17 17 16 13 12 17 21 22 17 11
34 33 32 32 34 34 35 33 31 32 32 29 29 30 30 30 30 29 28 28 27 27 26 24 22 22 21 21 21 21 21 20 21 21 20 20 20 19 19 18 18 17 18 18 15 15 15 14 15 16 15 13 13 14 16 17 14 12 17 20 19 15 10
36 35 33 32 33 34 34 33 33 34 34 32 32 32 31 31 31 31 30 29 29 28 27 25 23 23 23 22 22 21 21 21 21 21 21 20 20 20 20 20 19 18 18 18 17 17 17 17 17 18 17 15 13 12 13 13 13 12 16 17 16 14 12
37 35 34 33 32 33 33 33 34 34 33 32 33 33 31 31 32 32 31 30 30 29 28 26 25 25 24 23 22 22 22 21 22 22 21 20 20 20 21 20 20 20 17 16 18 19 18 18 17 16 16 16 14 12 11 12 12 13 14 13 14 14 12
36 35 35 34 33 32 32 34 34 34 33 31 31 32 31 31 32 33 32 32 31 30 29 28 27 26 25 24 24 23 22 22 22 22 21 21 20 21 21 21 21 20 18 17 20 21 20 19 18 17 16 16 15 13 12 13 15 15 13 10 12 14 14
38 37 35 35 35 34 33 33 32 33 35 33 30 31 31 30 31 32 31 31 31 31 31 30 29 27 26 26 25 24 23 22 22 22 21 21 21 21 21 21 21 21 20 20 22 22 21 20 20 20 19 17 16 15 14 14 15 16 14 12 14 16 15
41 39 36 35 37 37 35 33 32 32 33 33 30 29 30 31 31 32 31 29 30 32 32 31 30 29 27 27 26 25 23 22 22 22 22 22 22 22 23 23 23 24 23 23 23 21 20 19 19 20 19 17 17 18 17 15 14 11 12 14 16 16 16
43 40 37 37 38 39 37 35 34 33 33 33 31 29 31 32 32 32 32 31 31 32 32 32 31 30 29 28 28 26 24 23 23 23 23 23 23 22 21 20 20 21 22 22 22 20 18 17 17 15 15 18 19 20 19 17 12 8 10 16 18 15 14
43 41 39 38 40 40 38 36 36 36 34 33 32 30 31 32 32 33 34 33 32 32 33 33 33 31 30 30 29 28 27 25 25 25 25 24 22 20 18 17 17 17 17 17 16 18 18 19 19 18 18 22 24 23 21 19 14 9 9 15 18 15 14
42 41 39 39 40 40 38 38 38 37 35 33 32 32 32 30 30 33 35 35 34 33 33 34 35 34 32 31 30 30 29 28 27 25 25 23 21 20 20 19 18 17 15 15 15 18 21 22 23 24 25 26 26 24 22 19 16 13 12 12 16 17 17
43 43 41 41 41 40 38 39 40 39 36 34 33 34 34 31 29 32 34 35 36 34 32 32 35 35 34 33 32 31 30 30 28 25 24 24 20 20 22 23 22 20 18 20 22 24 27 28 29 29 28 26 25 22 20 20 18 17 16 15 17 20 20
44 45 44 43 42 41 39 40 41 40 37 35 35 35 35 31 30 32 33 34 34 33 32 31 34 36 36 35 34 32 30 29 27 25 25 24 20 20 23 25 26 26 24 26 29 30 31 29 27 27 25 23 21 19 18 20 20 19 18 19 20 21 21
44 46 46 45 43 42 41 42 43 41 38 37 37 37 34 30 31 34 35 34 33 33 33 32 34 37 37 37 35 33 30 29 27 26 24 23 21 21 23 25 25 25 26 28 29 29 27 24 21 21 20 19 19 19 17 17 17 19 20 20 20 19 18
43 45 46 46 45 43 43 44 44 42 39 39 40 38 34 31 33 36 37 36 34 33 33 34 35 37 38 38 36 33 32 30 29 27 25 23 22 22 24 26 24 22 24 27 28 26 25 23 22 22 19 17 18 19 19 17 17 21 21 19 17 14 14
44 45 46 46 45 44 44 44 43 41 40 41 42 39 33 33 37 39 38 38 36 34 35 37 37 36 38 38 36 34 32 30 29 28 27 25 24 24 26 28 25 22 25 28 29 27 26 25 25 23 20 19 19 20 22 21 21 22 22 19 15 12 14
45 45 45 46 45 44 45 44 42 40 40 41 42 40 35 34 39 41 40 40 38 35 36 38 38 36 37 38 37 35 33 30 29 29 29 28 26 24 26 28 26 24 26 29 29 28 27 26 26 24 22 21 21 22 23 24 23 22 21 18 14 13 15
45 45 44 45 47 46 45 45 42 41 41 41 43 42 38 37 39 41 40 39 37 35 37 38 38 38 38 37 36 35 33 32 31 29 28 27 25 24 26 27 26 25 27 29 29 27 27 26 25 25 24 24 24 24 23 22 22 21 20 18 16 15 16
44 46 46 46 47 47 46 45 43 42 42 42 43 44 41 39 40 40 39 39 37 37 39 41 40 40 39 38 36 35 34 34 33 29 27 27 26 26 26 26 26 26 27 28 28 26 26 25 24 25 25 26 26 25 23 21 19 19 18 17 16 16 16
43 45 47 48 48 47 46 44 43 43 43 42 43 44 43 40 40 41 40 41 40 40 41 43 43 42 40 38 37 36 35 36 34 30 29 29 28 26 25 25 26 26 27 28 27 26 25 25 25 25 26 26 25 24 22 20 18 18 17 16 17 17 15
43 45 47 48 48 48 46 44 44 44 45 44 43 43 44 42 40 40 41 42 42 42 43 43 44 43 41 39 38 37 36 36 35 32 31 31 29 26 25 26 26 27 28 28 27 26 26 26 25 25 26 26 24 22 20 20 19 18 17 16 17 17 15
43 44 46 48 48 48 47 46 46 46 46 46 45 44 45 44 42 41 42 43 43 44 44 44 45 44 41 39 39 38 37 37 36 32 32 33 30 27 26 27 27 28 29 29 29 28 27 26 26 26 25 25 23 21 20 20 20 19 17 17 17 16 16
45 43 44 48 49 49 48 48 47 47 47 47 47 47 47 47 45 42 42 44 44 45 45 45 46 46 43 41 41 40 39 38 36 33 33 34 31 27 26 28 29 29 29 29 29 29 28 27 26 26 25 24 22 21 20 21 21 19 19 19 17 16 17
46 45 45 48 50 49 49 49 48 47 47 47 48 49 49 49 48 45 44 45 45 44 45 47 47 47 46 44 44 44 42 38 35 34 35 35 31 26 25 27 29 30 30 30 30 29 28 28 27 26 25 24 22 21 20 21 22 21 20 21 20 17 16
45 45 46 48 50 51 50 49 48 46 47 48 49 50 51 50 50 48 47 47 46 45 46 48 48 48 46 46 47 47 43 39 36 36 36 34 29 26 26 27 29 30 30 30 30 29 29 28 27 27 26 25 24 21 20 21 23 22 21 23 24 21 18
45 46 47 48 50 51 50 50 49 47 48 49 50 51 51 51 51 50 49 48 47 47 48 49 50 49 47 47 48 47 44 40 38 38 37 34 29 27 26 27 29 30 30 30 29 28 28 27 27 27 27 26 24 22 22 23 23 23 23 25 25 23 21
46 47 48 48 50 51 51 50 50 50 49 49 51 52 51 51 51 51 50 49 47 48 49 50 50 49 48 47 49 48 45 42 40 39 37 34 30 28 28 28 30 30 30 30 28 27 27 27 27 27 27 27 25 24 23 23 23 24 25 26 25 24 23
47 48 49 50 50 51 51 50 50 51 50 51 52 53 52 51 52 52 51 50 48 49 50 51 50 48 48 48 49 49 47 43 41 39 35 34 32 30 29 30 30 29 30 29 28 26 26 26 26 27 28 27 26 25 25 23 22 24 26 26 25 25 24
48 49 51 51 52 52 52 52 52 51 51 51 52 53 52 52 52 52 52 51 48 49 51 52 51 49 47 46 48 49 48 45 42 39 36 35 33 29 27 28 28 28 29 28 27 26 25 24 25 27 27 27 26 26 25 22 21 23 25 25 25 25 23
46 50 52 53 54 54 53 53 52 52 52 52 51 50 51 52 52 52 52 51 49 50 52 53 51 49 46 45 47 49 49 47 44 40 39 38 33 28 26 27 27 28 28 28 27 25 23 24 25 26 26 26 26 25 24 22 20 21 23 24 24 23 22
39 46 51 54 54 53 52 53 53 53 53 51 50 49 49 51 52 52 51 50 49 50 53 54 51 48 46 44 46 50 51 49 46 43 41 39 34 29 27 27 28 28 28 28 27 25 23 23 25 25 24 24 24 23 22 22 20 20 21 23 23 22 21
44 45 50 53 51 47 48 50 52 52 52 51 50 49 48 49 51 51 50 50 49 50 53 54 52 49 46 43 45 50 51 50 48 46 44 41 35 30 29 29 29 27 25 26 27 25 23 24 25 24 23 23 23 23 22 22 21 21 21 22 21 21 21
51 51 52 53 51 46 45 47 49 50 50 50 50 48 47 48 51 50 49 49 49 50 52 54 53 50 45 42 44 49 50 49 49 48 46 42 37 33 31 31 28 25 23 25 26 25 25 24 24 25 24 24 23 22 21 22 22 22 21 20 20 20 20
46 51 53 55 54 49 47 48 49 49 49 49 50 48 47 49 50 49 49 49 48 49 52 53 52 50 45 41 43 48 50 49 49 48 46 42 38 36 34 31 27 24 24 24 24 25 26 24 24 25 24 23 23 23 22 22 22 20 19 19 19 18 18
Wind_Direction
200 200 202 194 201 211 207 208 209 207 210 210 208 209 214 220 220 219 218 219 225 228 230 232 232 232 236 236 230 226 220 211 210 211 208 206 206 208 210 210 215 219 206 196 200 198 203 213 209 217 232 240 247 243 232 239 235 224 236 239 242 256 268
201 199 204 195 197 208 206 206 209 207 207 207 207 209 211 217 222 224 221 220 222 227 232 233 234 235 234 236 233 227 224 218 214 215 215 217 215 211 212 214 215 220 223 221 220 223 227 233 228 226 231 231 241 257 254 237 228 225 239 246 247 251 265
200 195 202 200 198 203 205 207 210 208 207 207 207 209 211 213 219 224 223 222 222 224 230 233 233 236 236 235 235 231 228 224 221 220 220 223 224 220 218 221 222 222 227 229 228 235 238 241 247 240 234 237 247 262 267 253 235 222 234 250 250 245 250
202 194 196 202 201 202 204 206 209 209 209 211 209 210 213 212 215 222 223 222 223 221 225 230 231 235 237 235 235 234 230 227 225 223 222 224 227 228 227 229 229 224 229 232 225 231 236 233 243 245 239 247 258 266 271 269 251 221 223 243 250 249 244
204 199 197 202 204 203 204 205 208 209 209 212 211 210 213 212 214 220 221 220 222 221 221 225 227 232 237 236 234 235 231 228 228 226 225 228 229 230 228 228 227 218 222 232 226 226 234 234 237 243 244 246 252 260 263 261 254 226 217 232 249 259 244
206 206 203 204 206 205 206 206 207 209 209 211 212 212 213 214 215 219 218 217 219 221 221 222 224 230 235 235 233 235 233 229 230 231 231 232 232 231 228 226 227 219 217 224 222 219 228 236 238 240 242 244 247 253 251 246 247 228 217 229 244 257 250
207 209 208 207 208 209 209 209 211 213 214 214 216 216 216 216 215 218 218 216 217 221 222 221 223 227 233 235 234 235 234 232 233 233 233 235 234 232 231 228 226 224 221 221 220 220 223 229 237 242 240 240 246 254 250 245 249 235 222 228 233 240 249
209 212 211 210 212 213 212 211 213 218 219 217 217 219 219 216 215 217 219 217 217 220 221 220 221 225 230 232 233 234 234 232 233 233 235 237 235 233 233 231 227 226 226 223 224 227 224 225 237 245 243 239 242 254 249 235 237 231 217 219 227 231 234
215 213 212 213 215 216 214 210 212 218 220 219 219 220 222 219 215 217 219 218 217 217 220 221 221 225 228 229 229 231 231 230 230 232 234 235 234 231 231 232 231 230 227 225 231 233 228 225 230 235 240 240 239 248 246 229 226 223 214 224 234 226 220
221 219 218 218 214 212 212 211 213 217 220 222 222 222 223 220 216 216 217 217 216 215 217 220 221 224 227 226 227 228 228 229 229 229 229 230 229 228 228 230 230 229 226 225 231 233 229 228 229 231 234 233 230 240 246 244 242 233 232 244 233 216 211
220 222 223 217 210 209 212 213 215 217 219 221 223 222 221 219 216 215 213 212 214 215 215 218 221 223 225 224 225 226 226 224 224 225 225 227 229 232 234 232 230 230 227 224 227 230 229 232 234 234 229 221 223 236 242 250 259 254 246 239 221 214 214
220 224 224 218 210 209 213 216 216 217 217 219 222 220 217 217 216 213 210 210 214 216 214 216 220 221 223 223 222 223 223 219 219 222 225 229 235 238 238 233 232 236 233 225 223 226 232 239 243 239 228 221 228 237 236 238 253 267 248 223 210 215 221
219 223 223 217 212 211 214 217 217 215 215 217 220 220 218 217 216 213 211 210 214 217 215 214 218 220 222 224 222 221 220 217 217 223 229 234 234 232 234 236 238 242 237 226 223 229 237 242 240 234 227 226 233 238 234 230 236 241 228 214 207 212 218
217 220 217 214 213 213 214 217 216 213 213 217 219 218 218 218 215 213 212 211 213 217 216 214 216 219 220 222 223 220 217 216 219 225 230 232 228 221 223 232 240 245 241 230 225 230 234 233 229 227 228 231 235 235 229 225 227 227 223 214 207 211 219
217 217 214 212 213 214 213 214 214 212 211 216 219 217 216 217 213 212 213 212 213 216 217 214 215 217 219 220 221 219 216 216 219 223 224 225 223 215 214 217 225 234 239 233 226 225 229 230 229 231 234 236 234 230 223 220 219 221 225 220 213 218 227
216 215 214 212 213 213 213 213 213 212 211 215 217 216 216 216 212 211 214 213 213 215 215 214 214 216 218 219 220 220 218 217 219 220 222 223 220 216 218 219 218 218 223 228 227 226 229 233 234 236 238 233 226 218 218 224 221 220 229 230 225 229 234
215 214 214 213 212 212 213 212 212 212 211 213 215 216 217 214 209 211 216 215 214 213 212 213 214 215 216 218 220 220 218 216 216 218 220 221 219 218 225 230 226 219 219 226 230 229 230 232 233 235 235 227 220 213 214 224 223 219 229 234 232 235 241
213 213 215 214 213 213 213 213 212 212 212 212 215 216 215 211 209 212 217 217 214 212 212 214 216 215 215 218 220 220 219 216 215 217 221 222 221 220 225 233 234 227 224 229 234 233 230 229 228 230 229 222 216 213 211 217 220 218 225 233 232 231 236
213 214 215 214 214 214 213 212 211 210 211 212 214 215 212 209 210 213 216 216 214 212 212 215 217 217 216 217 219 219 219 218 214 215 220 221 221 222 226 232 236 231 227 231 237 236 232 230 229 228 225 216 210 211 212 214 219 222 224 229 231 225 221
215 215 216 216 215 214 212 210 210 209 210 211 213 214 211 209 212 214 215 216 214 211 213 216 218 219 217 217 219 217 217 218 215 214 218 220 222 227 229 231 234 230 228 233 238 238 235 234 230 226 222 214 210 216 219 220 224 228 227 225 225 225 221
218 217 219 219 217 215 212 210 210 210 209 211 213 214 213 210 213 215 216 217 215 211 212 216 218 219 218 216 216 216 216 217 217 217 218 217 220 227 229 228 230 229 230 236 239 238 237 237 232 226 221 216 215 222 228 227 228 230 229 223 218 222 223
219 219 219 218 216 215 213 211 210 209 209 211 213 214 214 213 213 215 215 216 214 212 212 215 217 218 218 215 214 215 215 216 217 217 215 213 218 226 227 226 228 229 231 236 239 238 238 237 234 228 223 220 222 228 232 231 226 224 223 217 211 215 219
220 220 219 218 215 214 213 212 210 208 208 211 213 213 213 213 213 213 213 213 214 214 214 216 218 219 219 216 215 214 214 215 215 214 211 213 220 227 225 225 228 229 231 235 237 237 236 235 232 229 227 228 232 235 234 230 223 218 216 210 206 211 217
220 222 220 218 216 214 213 211 210 208 207 209 211 212 211 211 210 211 212 212 214 215 215 217 219 221 221 220 217 215 214 213 213 211 210 216 226 232 227 226 228 227 229 234 235 234 234 233 231 230 230 232 237 238 234 228 223 216 211 208 208 211 217
219 221 222 219 217 216 214 210 209 208 207 208 210 211 210 210 209 209 211 213 214 215 215 217 219 220 221 221 220 217 214 213 214 212 211 219 230 235 227 223 226 227 229 234 235 234 234 233 232 231 232 235 237 236 231 225 221 215 205 206 211 213 216
217 218 221 220 217 215 213 210 208 208 208 208 210 210 211 211 211 210 212 214 215 216 216 217 218 220 221 221 221 219 215 216 217 214 213 220 231 235 227 221 225 228 231 233 234 235 235 233 232 230 231 234 235 234 230 223 219 213 204 205 210 213 218
217 217 219 219 217 214 212 210 208 208 208 208 209 210 211 212 211 212 213 214 215 215 216 218 219 220 220 220 220 219 218 219 219 214 214 222 233 240 234 225 226 229 232 234 235 235 235 233 231 229 229 232 233 231 229 222 217 213 207 207 208 208 216
218 216 217 218 216 213 211 209 209 208 208 209 210 211 211 212 211 212 213 216 216 216 217 220 220 219 219 220 221 220 219 220 218 215 218 225 234 243 241 231 228 231 234 236 237 237 236 233 231 229 229 231 231 230 227 223 222 219 214 214 214 213 214
220 217 217 218 217 214 212 210 209 208 207 209 211 211 211 211 211 212 214 215 215 216 218 220 221 220 220 221 222 220 218 219 217 215 219 225 231 240 242 234 230 232 235 238 239 239 238 235 231 229 229 230 230 229 226 224 226 227 222 220 222 223 222
219 219 218 218 218 215 211 210 209 208 207 207 209 210 211 211 211 212 213 214 213 215 218 220 221 220 220 222 222 220 217 217 216 216 220 224 225 232 240 237 231 232 236 239 240 239 238 236 231 229 229 229 229 228 227 226 227 228 227 226 228 230 230
220 220 218 218 219 215 210 208 207 207 208 208 209 211 211 211 211 211 212 212 213 215 218 221 222 220 220 223 223 219 215 214 215 217 219 221 222 228 237 236 231 232 236 239 241 239 237 235 232 229 229 229 228 227 228 229 229 228 228 230 231 233 235
225 222 219 218 220 216 211 207 207 207 209 209 210 211 210 210 210 210 211 212 214 216 218 221 222 220 222 225 223 218 213 213 215 215 216 217 220 225 231 231 229 232 237 240 240 237 235 235 232 230 231 230 228 228 231 235 235 232 231 232 232 233 236
230 226 221 219 219 217 212 208 207 207 208 209 210 209 209 209 209 210 211 211 212 215 219 222 222 221 223 227 224 217 213 213 214 212 212 216 218 220 226 229 228 229 234 238 239 236 233 232 232 231 232 231 229 230 238 245 241 232 230 231 232 234 236
227 224 221 220 219 216 212 208 207 206 207 207 207 208 208 209 209 209 210 210 211 214 218 222 222 222 224 227 224 219 216 215 213 212 213 216 219 221 225 229 227 227 230 236 238 236 230 228 230 231 231 232 230 231 240 248 242 229 225 227 230 233 236
226 223 220 221 221 217 212 208 206 205 205 205 206 207 208 207 208 208 208 209 210 213 218 221 222 223 226 228 224 220 218 216 215 215 215 217 219 221 224 229 230 230 234 238 240 238 232 227 228 228 227 228 229 228 232 236 235 231 228 227 228 230 234
234 231 227 225 224 220 214 209 205 204 205 204 204 205 206 206 206 206 208 210 211 213 218 221 222 223 226 227 223 220 219 218 218 218 219 221 223 222 223 228 232 234 237 241 241 237 231 226 226 226 224 225 227 227 225 224 227 230 231 231 232 233 235
239 235 228 224 223 220 215 209 206 205 204 203 202 202 203 204 204 205 207 209 210 213 218 222 223 223 225 226 223 219 217 217 219 221 222 224 225 222 223 228 232 233 235 237 238 235 229 225 224 225 224 224 224 223 222 219 221 226 229 230 233 234 235